QPF
0.00 0.00 0.00 0.00 0.00 0.00 0.00 0.00 0.01 0.01 0.01 0.01 0.01 0.02 0.03 0.06 0.05 0.03 0.04 0.07 0.08 0.10 0.14 0.18 0.14 0.14 0.23 0.36 0.42 0.43 0.29 0.17 0.15 0.12 0.07 0.06 0.05 0.05 0.04 0.03 0.02 0.01 0.01 0.01
0.00 0.00 0.00 0.00 0.00 0.00 0.00 0.01 0.00 0.00 0.01 0.01 0.01 0.02 0.04 0.08 0.07 0.04 0.04 0.05 0.06 0.10 0.14 0.21 0.17 0.12 0.14 0.27 0.35 0.38 0.30 0.18 0.14 0.10 0.07 0.06 0.06 0.06 0.05 0.03 0.02 0.01 0.01 0.01
0.00 0.00 0.00 0.00 0.00 0.00 0.00 0.01 0.00 0.01 0.01 0.01 0.02 0.04 0.05 0.07 0.10 0.05 0.02 0.02 0.02 0.04 0.10 0.15 0.11 0.08 0.08 0.12 0.19 0.23 0.24 0.19 0.13 0.09 0.06 0.07 0.06 0.06 0.04 0.02 0.02 0.01 0.01 0.01
0.00 0.00 0.00 0.01 0.01 0.01 0.01 0.01 0.00 0.01 0.01 0.02 0.03 0.03 0.03 0.03 0.07 0.05 0.02 0.02 0.01 0.03 0.06 0.11 0.11 0.06 0.06 0.09 0.13 0.16 0.14 0.15 0.12 0.06 0.04 0.04 0.03 0.03 0.02 0.01 0.01 0.01 0.01 0.01
0.00 0.00 0.00 0.00 0.00 0.00 0.00 0.00 0.00 0.01 0.01 0.02 0.02 0.03 0.05 0.06 0.09 0.06 0.03 0.02 0.04 0.05 0.05 0.07 0.10 0.07 0.07 0.11 0.13 0.13 0.10 0.11 0.10 0.07 0.04 0.03 0.03 0.03 0.02 0.01 0.01 0.00 0.00 0.00
0.00 0.00 0.00 0.00 0.00 0.00 0.00 0.00 0.00 0.01 0.02 0.04 0.04 0.06 0.08 0.04 0.04 0.04 0.03 0.03 0.06 0.05 0.03 0.04 0.06 0.06 0.06 0.10 0.13 0.11 0.08 0.06 0.04 0.05 0.04 0.03 0.03 0.03 0.02 0.01 0.00 0.00 0.00 0.00
0.00 0.00 0.00 0.00 0.01 0.01 0.00 0.00 0.01 0.02 0.04 0.06 0.05 0.05 0.05 0.03 0.03 0.03 0.03 0.02 0.02 0.02 0.02 0.02 0.03 0.04 0.03 0.04 0.07 0.08 0.08 0.05 0.03 0.03 0.04 0.03 0.03 0.03 0.02 0.01 0.00 0.00 0.00 0.00
0.00 0.00 0.01 0.01 0.01 0.01 0.01 0.00 0.01 0.03 0.04 0.07 0.08 0.11 0.10 0.06 0.03 0.03 0.03 0.02 0.02 0.01 0.01 0.01 0.02 0.02 0.02 0.03 0.04 0.04 0.04 0.04 0.03 0.02 0.02 0.03 0.03 0.02 0.02 0.01 0.00 0.00 0.00 0.00
0.00 0.00 0.00 0.01 0.01 0.01 0.01 0.00 0.01 0.01 0.02 0.06 0.09 0.15 0.14 0.05 0.03 0.05 0.07 0.03 0.02 0.01 0.01 0.01 0.01 0.02 0.03 0.04 0.05 0.03 0.02 0.03 0.03 0.02 0.02 0.02 0.03 0.02 0.01 0.01 0.01 0.00 0.00 0.00
0.01 0.01 0.01 0.01 0.01 0.01 0.01 0.01 0.01 0.02 0.03 0.06 0.08 0.10 0.12 0.07 0.06 0.06 0.09 0.05 0.03 0.02 0.01 0.02 0.02 0.02 0.03 0.04 0.06 0.04 0.02 0.02 0.02 0.02 0.01 0.02 0.02 0.03 0.01 0.01 0.00 0.00 0.00 0.00
0.01 0.01 0.01 0.01 0.01 0.02 0.03 0.02 0.03 0.03 0.04 0.05 0.07 0.07 0.08 0.06 0.06 0.05 0.05 0.04 0.03 0.02 0.02 0.02 0.02 0.02 0.04 0.04 0.05 0.03 0.02 0.02 0.02 0.02 0.01 0.01 0.01 0.02 0.01 0.01 0.01 0.00 0.00 0.00
0.01 0.02 0.03 0.03 0.02 0.02 0.03 0.04 0.04 0.04 0.04 0.04 0.05 0.05 0.04 0.05 0.04 0.04 0.04 0.04 0.03 0.02 0.01 0.02 0.02 0.02 0.03 0.03 0.02 0.03 0.02 0.01 0.01 0.01 0.01 0.00 0.00 0.01 0.01 0.01 0.01 0.00 0.00 0.00
0.02 0.04 0.04 0.03 0.02 0.02 0.03 0.04 0.05 0.06 0.06 0.05 0.08 0.09 0.04 0.04 0.04 0.05 0.05 0.05 0.03 0.02 0.01 0.01 0.02 0.02 0.02 0.02 0.01 0.01 0.02 0.02 0.02 0.01 0.00 0.00 0.00 0.00 0.01 0.01 0.01 0.00 0.00 0.00
0.01 0.02 0.04 0.05 0.05 0.06 0.05 0.05 0.06 0.06 0.06 0.05 0.07 0.07 0.04 0.04 0.05 0.05 0.07 0.11 0.06 0.03 0.02 0.02 0.02 0.02 0.02 0.02 0.01 0.01 0.01 0.01 0.01 0.01 0.00 0.00 0.00 0.00 0.00 0.00 0.00 0.00 0.00 0.00
0.01 0.02 0.04 0.03 0.03 0.07 0.06 0.05 0.05 0.04 0.03 0.04 0.04 0.05 0.04 0.07 0.06 0.06 0.12 0.11 0.07 0.05 0.03 0.02 0.02 0.02 0.02 0.01 0.02 0.01 0.00 0.00 0.00 0.00 0.00 0.00 0.00 0.00 0.00 0.00 0.00 0.00 0.00 0.00
0.04 0.05 0.07 0.05 0.04 0.06 0.05 0.04 0.03 0.02 0.02 0.02 0.04 0.05 0.04 0.04 0.08 0.09 0.11 0.11 0.06 0.03 0.02 0.02 0.01 0.01 0.01 0.01 0.01 0.01 0.00 0.00 0.00 0.01 0.00 0.00 0.00 0.00 0.00 0.00 0.01 0.01 0.01 0.01
0.06 0.06 0.07 0.07 0.05 0.07 0.05 0.04 0.03 0.02 0.02 0.02 0.04 0.07 0.05 0.04 0.07 0.09 0.11 0.10 0.06 0.03 0.03 0.02 0.01 0.01 0.00 0.00 0.01 0.01 0.00 0.01 0.01 0.01 0.00 0.00 0.00 0.00 0.00 0.01 0.01 0.01 0.01 0.01
0.08 0.09 0.10 0.07 0.07 0.09 0.05 0.04 0.04 0.05 0.04 0.04 0.04 0.06 0.08 0.07 0.10 0.10 0.08 0.06 0.07 0.07 0.05 0.03 0.03 0.03 0.02 0.01 0.01 0.01 0.02 0.02 0.02 0.01 0.01 0.00 0.00 0.00 0.01 0.02 0.02 0.02 0.02 0.02
0.04 0.06 0.08 0.07 0.08 0.07 0.05 0.04 0.05 0.07 0.08 0.12 0.13 0.10 0.11 0.10 0.07 0.09 0.07 0.05 0.06 0.08 0.06 0.05 0.06 0.05 0.05 0.04 0.04 0.03 0.03 0.02 0.02 0.01 0.01 0.01 0.01 0.02 0.03 0.04 0.04 0.05 0.04 0.03
0.06 0.06 0.08 0.07 0.07 0.07 0.08 0.08 0.08 0.09 0.14 0.19 0.22 0.23 0.23 0.19 0.14 0.09 0.07 0.07 0.10 0.09 0.07 0.06 0.06 0.07 0.05 0.05 0.06 0.04 0.04 0.03 0.03 0.03 0.03 0.03 0.04 0.04 0.06 0.06 0.07 0.06 0.05 0.05
0.14 0.14 0.12 0.11 0.10 0.09 0.09 0.11 0.09 0.12 0.15 0.17 0.20 0.24 0.28 0.24 0.19 0.10 0.07 0.07 0.10 0.07 0.06 0.07 0.07 0.07 0.07 0.07 0.08 0.09 0.08 0.07 0.06 0.06 0.07 0.08 0.09 0.11 0.12 0.11 0.09 0.09 0.10 0.09
0.15 0.18 0.17 0.16 0.14 0.13 0.12 0.12 0.15 0.19 0.19 0.26 0.22 0.22 0.24 0.21 0.18 0.14 0.11 0.09 0.07 0.08 0.07 0.07 0.07 0.08 0.08 0.09 0.10 0.11 0.11 0.13 0.17 0.18 0.19 0.19 0.21 0.22 0.19 0.19 0.19 0.18 0.15 0.14
0.15 0.17 0.18 0.19 0.23 0.20 0.13 0.14 0.14 0.18 0.24 0.31 0.28 0.21 0.24 0.21 0.16 0.14 0.12 0.09 0.06 0.06 0.06 0.06 0.07 0.08 0.10 0.12 0.15 0.16 0.16 0.17 0.20 0.21 0.22 0.20 0.23 0.22 0.18 0.18 0.18 0.20 0.20 0.20
0.12 0.12 0.16 0.21 0.25 0.18 0.13 0.11 0.14 0.21 0.24 0.31 0.32 0.29 0.32 0.25 0.16 0.12 0.09 0.06 0.06 0.05 0.05 0.06 0.08 0.09 0.11 0.14 0.17 0.17 0.17 0.17 0.19 0.18 0.18 0.19 0.20 0.21 0.20 0.21 0.20 0.19 0.18 0.17
0.09 0.08 0.11 0.16 0.15 0.12 0.13 0.17 0.22 0.32 0.28 0.30 0.27 0.21 0.22 0.19 0.14 0.11 0.08 0.06 0.05 0.05 0.06 0.06 0.05 0.07 0.10 0.12 0.13 0.13 0.14 0.15 0.18 0.19 0.20 0.20 0.18 0.16 0.15 0.16 0.17 0.16 0.13 0.11
0.10 0.10 0.12 0.13 0.10 0.12 0.15 0.19 0.27 0.34 0.31 0.33 0.30 0.25 0.19 0.15 0.11 0.09 0.08 0.06 0.05 0.04 0.05 0.05 0.05 0.07 0.09 0.10 0.12 0.12 0.13 0.12 0.13 0.15 0.16 0.15 0.14 0.13 0.12 0.11 0.11 0.10 0.09 0.06
MSLP
1010.71 1011.24 1011.52 1011.57 1011.45 1011.25 1011.02 1010.82 1010.68 1010.59 1010.52 1010.45 1010.35 1010.18 1009.96 1009.70 1009.43 1009.16 1008.93 1008.73 1008.56 1008.41 1008.26 1008.10 1007.93 1007.76 1007.63 1007.58 1007.65 1007.86 1008.24 1008.77 1009.43 1010.18 1010.96 1011.73 1012.45 1013.09 1013.63 1014.10 1014.51 1014.87 1015.23 1015.60
1011.07 1011.41 1011.48 1011.36 1011.15 1010.94 1010.81 1010.80 1010.91 1011.09 1011.27 1011.38 1011.37 1011.20 1010.89 1010.48 1010.03 1009.59 1009.22 1008.95 1008.76 1008.63 1008.54 1008.44 1008.32 1008.19 1008.06 1007.99 1008.02 1008.20 1008.57 1009.10 1009.79 1010.57 1011.39 1012.18 1012.88 1013.47 1013.95 1014.32 1014.63 1014.91 1015.20 1015.54
1011.08 1011.23 1011.11 1010.86 1010.58 1010.42 1010.43 1010.66 1011.05 1011.53 1011.96 1012.26 1012.35 1012.18 1011.78 1011.21 1010.57 1009.96 1009.45 1009.07 1008.85 1008.75 1008.72 1008.70 1008.66 1008.59 1008.50 1008.45 1008.48 1008.66 1009.02 1009.56 1010.26 1011.06 1011.89 1012.67 1013.35 1013.89 1014.29 1014.57 1014.79 1014.99 1015.22 1015.51
1010.75 1010.72 1010.45 1010.10 1009.82 1009.74 1009.94 1010.43 1011.12 1011.88 1012.58 1013.06 1013.23 1013.06 1012.57 1011.85 1011.02 1010.22 1009.56 1009.09 1008.83 1008.74 1008.78 1008.85 1008.90 1008.92 1008.90 1008.89 1008.95 1009.13 1009.49 1010.03 1010.73 1011.52 1012.34 1013.10 1013.75 1014.24 1014.58 1014.79 1014.93 1015.07 1015.24 1015.50
1010.17 1009.98 1009.60 1009.21 1008.97 1009.02 1009.42 1010.16 1011.14 1012.18 1013.10 1013.74 1013.98 1013.79 1013.21 1012.34 1011.34 1010.38 1009.57 1009.01 1008.72 1008.66 1008.75 1008.92 1009.08 1009.19 1009.25 1009.29 1009.37 1009.56 1009.90 1010.42 1011.08 1011.85 1012.64 1013.37 1013.98 1014.44 1014.73 1014.90 1015.00 1015.10 1015.24 1015.48
1009.45 1009.15 1008.71 1008.32 1008.16 1008.35 1008.96 1009.94 1011.15 1012.41 1013.51 1014.26 1014.55 1014.33 1013.66 1012.67 1011.53 1010.43 1009.52 1008.89 1008.58 1008.55 1008.71 1008.97 1009.22 1009.43 1009.56 1009.65 1009.74 1009.91 1010.22 1010.68 1011.29 1012.00 1012.74 1013.44 1014.02 1014.45 1014.73 1014.89 1014.99 1015.07 1015.20 1015.42
1008.74 1008.36 1007.91 1007.56 1007.50 1007.83 1008.61 1009.77 1011.16 1012.57 1013.77 1014.59 1014.89 1014.64 1013.90 1012.82 1011.59 1010.40 1009.43 1008.78 1008.47 1008.48 1008.71 1009.06 1009.40 1009.69 1009.87 1009.99 1010.08 1010.21 1010.46 1010.85 1011.37 1012.00 1012.68 1013.32 1013.88 1014.31 1014.60 1014.78 1014.89 1014.99 1015.13 1015.35
1008.11 1007.72 1007.30 1007.02 1007.06 1007.52 1008.41 1009.68 1011.15 1012.62 1013.86 1014.67 1014.95 1014.67 1013.90 1012.78 1011.52 1010.32 1009.35 1008.72 1008.45 1008.51 1008.82 1009.24 1009.66 1010.00 1010.22 1010.34 1010.41 1010.49 1010.65 1010.94 1011.37 1011.91 1012.51 1013.10 1013.64 1014.07 1014.39 1014.60 1014.75 1014.89 1015.05 1015.28
1007.64 1007.28 1006.92 1006.74 1006.87 1007.40 1008.35 1009.63 1011.10 1012.53 1013.72 1014.48 1014.73 1014.42 1013.65 1012.54 1011.32 1010.18 1009.27 1008.71 1008.52 1008.66 1009.03 1009.51 1009.98 1010.36 1010.60 1010.72 1010.75 1010.77 1010.85 1011.04 1011.36 1011.80 1012.32 1012.86 1013.38 1013.82 1014.17 1014.42 1014.62 1014.80 1014.99 1015.23
1007.32 1007.04 1006.78 1006.69 1006.89 1007.45 1008.38 1009.59 1010.96 1012.26 1013.33 1014.01 1014.19 1013.88 1013.14 1012.11 1011.00 1009.97 1009.19 1008.74 1008.65 1008.86 1009.30 1009.83 1010.34 1010.74 1010.99 1011.09 1011.09 1011.05 1011.06 1011.16 1011.39 1011.74 1012.19 1012.68 1013.18 1013.62 1014.00 1014.30 1014.54 1014.75 1014.97 1015.21
1007.13 1006.98 1006.84 1006.84 1007.08 1007.61 1008.45 1009.52 1010.69 1011.80 1012.70 1013.24 1013.36 1013.05 1012.38 1011.48 1010.53 1009.67 1009.05 1008.74 1008.75 1009.05 1009.54 1010.10 1010.62 1011.03 1011.28 1011.38 1011.36 1011.30 1011.26 1011.31 1011.47 1011.76 1012.14 1012.60 1013.06 1013.51 1013.90 1014.23 1014.50 1014.74 1014.98 1015.22
1007.05 1007.04 1007.03 1007.11 1007.36 1007.83 1008.52 1009.37 1010.30 1011.17 1011.85 1012.24 1012.29 1011.99 1011.42 1010.68 1009.91 1009.25 1008.80 1008.63 1008.75 1009.10 1009.62 1010.18 1010.71 1011.12 1011.38 1011.49 1011.49 1011.44 1011.40 1011.43 1011.57 1011.82 1012.16 1012.58 1013.02 1013.45 1013.84 1014.18 1014.47 1014.73 1014.97 1015.21
1007.08 1007.22 1007.33 1007.47 1007.70 1008.06 1008.56 1009.17 1009.82 1010.42 1010.87 1011.10 1011.07 1010.80 1010.32 1009.73 1009.15 1008.67 1008.39 1008.34 1008.53 1008.92 1009.43 1009.99 1010.50 1010.91 1011.19 1011.34 1011.39 1011.39 1011.39 1011.45 1011.60 1011.84 1012.17 1012.56 1012.97 1013.38 1013.75 1014.09 1014.38 1014.64 1014.88 1015.12
1007.23 1007.50 1007.70 1007.87 1008.06 1008.29 1008.59 1008.94 1009.30 1009.62 1009.84 1009.92 1009.81 1009.55 1009.16 1008.71 1008.29 1007.97 1007.80 1007.83 1008.06 1008.43 1008.92 1009.43 1009.92 1010.33 1010.64 1010.85 1010.98 1011.07 1011.17 1011.30 1011.49 1011.76 1012.08 1012.44 1012.83 1013.21 1013.56 1013.88 1014.16 1014.42 1014.66 1014.89
1007.53 1007.90 1008.15 1008.32 1008.44 1008.53 1008.62 1008.72 1008.81 1008.87 1008.88 1008.80 1008.62 1008.35 1008.02 1007.68 1007.37 1007.15 1007.06 1007.12 1007.32 1007.65 1008.07 1008.52 1008.97 1009.38 1009.73 1010.01 1010.26 1010.47 1010.68 1010.92 1011.18 1011.49 1011.82 1012.17 1012.53 1012.87 1013.19 1013.48 1013.75 1014.00 1014.24 1014.48
1007.99 1008.40 1008.66 1008.80 1008.83 1008.78 1008.67 1008.55 1008.40 1008.23 1008.05 1007.83 1007.58 1007.30 1007.00 1006.71 1006.47 1006.29 1006.21 1006.25 1006.39 1006.63 1006.96 1007.33 1007.74 1008.14 1008.54 1008.91 1009.28 1009.63 1009.97 1010.32 1010.67 1011.03 1011.38 1011.71 1012.04 1012.34 1012.62 1012.88 1013.14 1013.39 1013.64 1013.89
1008.59 1008.98 1009.20 1009.27 1009.20 1009.01 1008.74 1008.43 1008.08 1007.74 1007.39 1007.06 1006.74 1006.43 1006.14 1005.87 1005.64 1005.46 1005.35 1005.32 1005.37 1005.51 1005.73 1006.02 1006.38 1006.78 1007.22 1007.69 1008.16 1008.65 1009.13 1009.58 1010.02 1010.42 1010.78 1011.10 1011.39 1011.65 1011.89 1012.13 1012.36 1012.61 1012.87 1013.14
1009.26 1009.56 1009.70 1009.68 1009.50 1009.19 1008.79 1008.33 1007.84 1007.36 1006.91 1006.50 1006.12 1005.78 1005.47 1005.19 1004.94 1004.73 1004.56 1004.44 1004.39 1004.42 1004.55 1004.76 1005.08 1005.48 1005.97 1006.51 1007.10 1007.69 1008.28 1008.83 1009.33 1009.76 1010.13 1010.43 1010.68 1010.89 1011.09 1011.29 1011.51 1011.76 1012.03 1012.32
1009.88 1010.05 1010.08 1009.94 1009.66 1009.25 1008.74 1008.19 1007.62 1007.06 1006.54 1006.07 1005.66 1005.29 1004.97 1004.67 1004.39 1004.14 1003.91 1003.72 1003.59 1003.54 1003.59 1003.76 1004.05 1004.46 1004.98 1005.59 1006.25 1006.93 1007.60 1008.21 1008.74 1009.19 1009.54 1009.80 1010.00 1010.17 1010.32 1010.49 1010.69 1010.93 1011.20 1011.50
1010.32 1010.34 1010.22 1009.97 1009.59 1009.10 1008.53 1007.93 1007.32 1006.73 1006.19 1005.71 1005.28 1004.91 1004.57 1004.27 1003.98 1003.71 1003.45 1003.23 1003.06 1002.97 1002.99 1003.13 1003.42 1003.85 1004.40 1005.05 1005.77 1006.50 1007.20 1007.84 1008.38 1008.80 1009.12 1009.34 1009.49 1009.60 1009.71 1009.84 1010.00 1010.23 1010.49 1010.79
1010.48 1010.33 1010.07 1009.70 1009.23 1008.69 1008.10 1007.48 1006.87 1006.29 1005.77 1005.30 1004.89 1004.54 1004.22 1003.94 1003.67 1003.41 1003.18 1002.97 1002.82 1002.75 1002.79 1002.96 1003.28 1003.73 1004.31 1004.99 1005.72 1006.46 1007.16 1007.78 1008.29 1008.68 1008.95 1009.11 1009.20 1009.26 1009.31 1009.39 1009.53 1009.72 1009.96 1010.24
1010.29 1009.98 1009.58 1009.12 1008.59 1008.02 1007.42 1006.82 1006.24 1005.70 1005.22 1004.79 1004.42 1004.11 1003.85 1003.62 1003.41 1003.22 1003.06 1002.94 1002.87 1002.88 1003.00 1003.24 1003.60 1004.09 1004.70 1005.38 1006.10 1006.81 1007.47 1008.04 1008.50 1008.82 1009.03 1009.13 1009.16 1009.16 1009.16 1009.19 1009.28 1009.43 1009.64 1009.89
1009.75 1009.30 1008.81 1008.27 1007.70 1007.12 1006.54 1005.98 1005.45 1004.97 1004.53 1004.16 1003.86 1003.61 1003.41 1003.27 1003.17 1003.10 1003.07 1003.09 1003.16 1003.31 1003.54 1003.88 1004.32 1004.85 1005.47 1006.13 1006.81 1007.47 1008.06 1008.55 1008.93 1009.18 1009.32 1009.36 1009.33 1009.28 1009.23 1009.22 1009.25 1009.35 1009.51 1009.71
1008.93 1008.40 1007.83 1007.25 1006.67 1006.10 1005.56 1005.04 1004.57 1004.14 1003.77 1003.46 1003.22 1003.04 1002.94 1002.91 1002.93 1003.02 1003.16 1003.36 1003.62 1003.94 1004.33 1004.78 1005.30 1005.88 1006.50 1007.13 1007.74 1008.31 1008.81 1009.21 1009.49 1009.67 1009.74 1009.72 1009.65 1009.56 1009.47 1009.41 1009.40 1009.44 1009.54 1009.69
1007.96 1007.38 1006.78 1006.19 1005.63 1005.10 1004.60 1004.14 1003.72 1003.35 1003.03 1002.77 1002.59 1002.50 1002.49 1002.57 1002.74 1003.00 1003.33 1003.73 1004.19 1004.70 1005.24 1005.82 1006.42 1007.03 1007.63 1008.21 1008.74 1009.21 1009.60 1009.89 1010.08 1010.18 1010.19 1010.14 1010.04 1009.92 1009.80 1009.71 1009.66 1009.66 1009.70 1009.79
1006.97 1006.38 1005.80 1005.25 1004.73 1004.25 1003.81 1003.41 1003.05 1002.72 1002.45 1002.24 1002.11 1002.08 1002.16 1002.35 1002.67 1003.09 1003.60 1004.19 1004.84 1005.52 1006.22 1006.90 1007.56 1008.18 1008.75 1009.25 1009.69 1010.05 1010.32 1010.51 1010.62 1010.65 1010.62 1010.54 1010.43 1010.31 1010.18 1010.08 1010.00 1009.95 1009.95 1009.97
Thickness
5787 5770 5758 5765 5771 5771 5770 5765 5764 5779 5797 5790 5780 5775 5778 5781 5777 5772 5768 5765 5760 5755 5754 5754 5752 5749 5747 5746 5742 5742 5741 5741 5741 5739 5738 5736 5736 5737 5738 5738 5738 5738 5738 5737
5765 5759 5776 5783 5783 5778 5772 5763 5766 5779 5794 5786 5774 5770 5777 5778 5775 5774 5769 5763 5758 5753 5748 5748 5747 5746 5745 5742 5740 5739 5738 5738 5739 5738 5738 5738 5736 5735 5735 5735 5735 5736 5736 5736
5755 5771 5786 5782 5777 5773 5771 5767 5771 5773 5782 5782 5769 5756 5763 5771 5774 5772 5771 5767 5761 5755 5749 5746 5745 5743 5742 5740 5738 5738 5737 5737 5737 5736 5736 5735 5732 5731 5730 5730 5731 5733 5734 5734
5763 5781 5781 5775 5774 5775 5763 5784 5784 5779 5763 5748 5757 5730 5750 5761 5761 5764 5763 5762 5759 5756 5752 5747 5745 5742 5741 5740 5740 5738 5737 5736 5735 5735 5735 5732 5729 5726 5727 5729 5730 5731 5732 5733
5762 5778 5775 5770 5779 5785 5777 5790 5784 5775 5759 5743 5743 5731 5739 5753 5749 5755 5760 5762 5760 5757 5753 5748 5746 5745 5742 5741 5739 5738 5736 5735 5734 5735 5735 5732 5729 5728 5728 5728 5728 5728 5730 5731
5772 5787 5784 5782 5791 5793 5791 5781 5768 5754 5739 5721 5732 5727 5730 5743 5752 5757 5761 5762 5759 5757 5755 5750 5748 5745 5742 5740 5739 5738 5735 5734 5734 5734 5733 5732 5729 5728 5726 5725 5725 5726 5727 5728
5757 5773 5786 5791 5778 5784 5781 5752 5725 5719 5709 5713 5732 5729 5734 5759 5767 5767 5765 5764 5763 5759 5755 5750 5747 5744 5741 5739 5738 5737 5735 5733 5733 5734 5733 5732 5731 5729 5727 5726 5725 5725 5725 5726
5734 5740 5771 5783 5776 5768 5770 5753 5721 5707 5703 5711 5726 5725 5745 5769 5775 5776 5774 5769 5765 5760 5756 5752 5750 5747 5744 5741 5739 5737 5735 5733 5733 5733 5732 5732 5731 5730 5728 5728 5728 5727 5727 5727
5734 5739 5775 5785 5789 5780 5763 5753 5752 5727 5718 5708 5714 5730 5751 5770 5772 5772 5771 5766 5763 5760 5757 5754 5751 5749 5746 5743 5740 5738 5736 5734 5734 5733 5732 5731 5731 5730 5729 5729 5729 5729 5728 5728
5747 5736 5759 5777 5783 5780 5772 5761 5738 5720 5705 5700 5711 5720 5731 5752 5759 5764 5764 5764 5763 5762 5759 5756 5753 5751 5748 5746 5742 5740 5737 5735 5735 5734 5734 5734 5733 5732 5731 5730 5729 5729 5728 5728
5748 5730 5741 5754 5753 5752 5757 5750 5736 5721 5716 5701 5696 5717 5760 5760 5763 5762 5764 5766 5764 5763 5761 5758 5756 5754 5751 5747 5743 5740 5738 5736 5735 5735 5734 5734 5733 5732 5732 5730 5730 5729 5728 5726
5741 5724 5717 5735 5758 5768 5757 5746 5733 5714 5711 5711 5704 5723 5773 5770 5767 5765 5764 5767 5768 5767 5765 5762 5759 5755 5751 5747 5744 5742 5740 5738 5737 5736 5735 5734 5733 5732 5731 5730 5729 5729 5726 5725
5736 5715 5701 5710 5727 5743 5742 5741 5734 5723 5712 5705 5702 5724 5769 5766 5765 5767 5767 5768 5769 5768 5766 5763 5759 5756 5753 5749 5747 5744 5742 5740 5739 5737 5735 5733 5732 5731 5730 5730 5729 5727 5725 5723
5737 5710 5700 5695 5706 5721 5725 5731 5732 5720 5704 5705 5715 5732 5753 5757 5761 5765 5770 5771 5771 5769 5767 5764 5760 5757 5756 5753 5750 5747 5744 5743 5741 5738 5736 5734 5733 5732 5731 5729 5727 5725 5723 5720
5721 5702 5705 5710 5720 5723 5724 5728 5730 5724 5721 5715 5725 5734 5749 5758 5764 5770 5773 5773 5771 5770 5768 5766 5763 5760 5758 5754 5752 5750 5747 5745 5743 5739 5736 5735 5734 5732 5730 5727 5725 5723 5721 5719
5705 5697 5698 5701 5715 5717 5718 5727 5731 5732 5732 5730 5732 5737 5757 5764 5767 5769 5772 5772 5771 5771 5772 5771 5768 5764 5761 5758 5755 5753 5750 5747 5745 5741 5738 5736 5733 5731 5728 5726 5724 5721 5719 5717
5692 5688 5684 5683 5699 5703 5699 5719 5726 5727 5733 5731 5725 5737 5751 5753 5760 5765 5770 5773 5774 5774 5774 5774 5772 5770 5767 5765 5761 5757 5754 5750 5746 5743 5740 5737 5734 5730 5728 5725 5721 5719 5716 5714
5686 5679 5672 5673 5682 5675 5703 5729 5731 5726 5727 5731 5733 5739 5746 5751 5759 5767 5770 5772 5773 5775 5775 5776 5775 5773 5771 5769 5765 5761 5755 5750 5746 5743 5741 5738 5735 5731 5727 5724 5720 5717 5714 5711
5688 5677 5667 5662 5665 5679 5704 5717 5718 5712 5713 5725 5729 5736 5743 5752 5754 5757 5766 5771 5774 5778 5778 5778 5777 5775 5772 5769 5765 5759 5754 5750 5746 5743 5741 5739 5736 5731 5727 5723 5720 5716 5712 5708
5682 5677 5666 5662 5663 5666 5689 5710 5721 5716 5701 5718 5725 5727 5734 5740 5728 5738 5756 5763 5767 5772 5775 5775 5774 5771 5768 5768 5764 5757 5752 5749 5746 5745 5743 5740 5735 5730 5726 5723 5718 5714 5710 5706
5663 5662 5661 5659 5660 5673 5692 5706 5713 5693 5696 5711 5718 5722 5727 5729 5731 5739 5748 5754 5759 5764 5769 5771 5769 5766 5766 5765 5760 5754 5750 5748 5748 5745 5740 5735 5732 5727 5723 5719 5715 5710 5705 5700
5656 5654 5655 5654 5653 5663 5688 5694 5690 5691 5701 5706 5712 5718 5722 5728 5733 5736 5740 5746 5751 5756 5760 5762 5761 5760 5760 5760 5755 5750 5747 5748 5745 5740 5735 5730 5726 5722 5718 5711 5708 5704 5699 5694
5657 5657 5655 5656 5659 5672 5681 5684 5690 5693 5695 5702 5707 5713 5718 5721 5725 5727 5729 5734 5740 5744 5749 5752 5753 5751 5749 5749 5748 5742 5742 5740 5737 5732 5728 5724 5719 5715 5712 5707 5701 5696 5692 5687
5657 5663 5658 5657 5664 5671 5677 5682 5687 5691 5694 5701 5706 5709 5712 5713 5715 5717 5721 5725 5728 5732 5737 5740 5741 5738 5736 5737 5737 5736 5735 5733 5729 5724 5719 5715 5711 5706 5704 5701 5696 5691 5685 5681
5654 5656 5652 5653 5661 5667 5672 5678 5684 5688 5693 5697 5700 5703 5705 5706 5706 5709 5713 5715 5718 5721 5725 5727 5727 5726 5724 5725 5725 5725 5725 5723 5719 5714 5710 5706 5702 5698 5693 5690 5687 5683 5681 5677
5652 5651 5650 5651 5659 5660 5663 5672 5678 5680 5682 5687 5690 5692 5695 5697 5698 5700 5701 5703 5706 5708 5711 5712 5713 5712 5712 5712 5712 5712 5713 5712 5708 5703 5699 5696 5692 5687 5683 5679 5675 5672 5670 5667